NOAA 16 DEB, 41256

Orbit data source: Space-Track

NOAA 16 DEB, 41256 is space debris in SSO originally from a launch on Thu, 21 Sep 2000 UTC launched from the Air Force Western Test Range (AFWTR). Debris objects in space refer to the collection of defunct objects orbiting the Earth. Examples of debris include non-operational satellites, rocket bodies, and fragments generated from explosions, collisions, or faulty payload assembly.

Loading next visibility...
Identifier
41256, 2000-055FG
Orbit
SSO
Country
Flag of USUS
Related business
Manufacturer
Unknown
Mission
Spacecraft
Bus & Motor
Unknown
Mass
Unknown
Launch date (UTC)
2000-09-21 (25 years ago)
Launch vehicle
Unknown
Launch site
Air Force Western Test Range (AFWTR)
Object type
Payload
Rocket body
Debris
Shape & HBR
Unknown shape, 0.1 m
Radar Cross Section
Small (<0.1 m²)

Expand to show TLE details & history
Last TLE update: 1 day ago

TLE from 1 day ago
0 NOAA 16 DEB
1 41256U 00055FG  26035.52233285  .00013964  00000-0  32791-2 0  9991
2 41256  99.0920 292.1265 0011316 187.3162 172.7869 14.54520844524879
Epoch: 2026-02-04T12:32Z
TLE epoch observation values (Epoch: 2026-02-04T12:32:09.558Z)
Latitude
0.00001°
Longitude
-30.60103°
Altitude
721.83 km
Speed
7.49 km/s
True Right ascension
19h 28m 30s
True Declination
0° 00' 00"
Sunlit
Object was in daylight at epoch
Visualization orbit readout
Latitude
Unknown
Longitude
Unknown
Altitude
Unknown
Speed
Unknown
Apparent Right ascension
Unknown
Apparent Declination
Unknown
Sunlit
N/A
Visualization observer readout
Local Sidereal Time
21:12:44
Azimuth
Unknown
Elevation
Unknown
Doppler factor
Unknown
Orbital elements
Apogee altitude
716.072 km
Perigee altitude
700.034 km
Semi-major axis
7,086.19 km
Eccentricity
0.00113
Inclination
99.092°
RAAN
292.1265°
Arg. of periapsis
187.3162°
True anomaly
172.80316°
Mean anomaly
172.7869°
Eccentric anomaly
172.79503°
Mean motion
3.63851 °/min
Orbital period
98.94 mins
BSTAR
0.0032791
Loading maneuver chart data...
Computing Atmospheric mass density...
Loading historical data...
Loading historical data...
Loading historical data...
Loading historical data...
Loading historical data...
Loading historical data...
Loading historical data...

Documentation

Showing up to 5 results
|